Location: 相模原市立博物館
(35.5593°N, 139.3931°E)
Time: 06:26:43
(UTC+09:00)

LilacSat-2 - Visible Passes

Search period start: 22 January 2022 00:00
Search period end: 01 February 2022 00:00
Orbit: 510 x 532 km, 97.5° (Epoch: 21 January)

Date Brightness Start Highest point End Pass type
(mag) Time Alt. Az. Time Alt. Az. Time Alt. Az.
22 Jan ? 05:01:09 10° NNE 05:04:33 32° E 05:07:55 10° SSE visible
23 Jan ? 04:48:24 10° NE 04:51:22 22° E 04:54:19 10° SSE visible
24 Jan ? 04:35:56 10° ENE 04:38:11 15° E 04:40:24 10° SE visible
24 Jan ? 06:09:09 10° NNW 06:12:21 27° WNW 06:15:32 10° SW visible
25 Jan ? 04:24:42 10° E 04:24:57 10° E 04:25:13 10° E visible
25 Jan ? 05:55:46 10° N 05:59:18 40° WNW 06:02:48 10° SW visible
26 Jan ? 05:42:30 10° N 05:46:13 63° WNW 05:49:54 10° SSW visible
26 Jan ? 17:56:41 10° WSW 17:58:14 12° W 17:59:46 10° WNW visible
27 Jan ? 05:29:21 10° NNE 05:33:06 84° ESE 05:36:50 10° S visible
27 Jan ? 17:42:23 10° SW 17:45:01 18° W 17:47:38 10° NW visible
28 Jan ? 05:16:18 10° NNE 05:19:58 53° E 05:23:37 10° S visible
28 Jan ? 17:28:37 10° SSW 17:31:49 26° W 17:35:02 10° NW visible
29 Jan ? 05:03:22 10° NNE 05:06:49 35° E 05:10:14 10° SSE visible
30 Jan ? 04:50:34 10° NE 04:53:37 23° E 04:56:40 10° SSE visible
31 Jan ? 04:38:02 10° NE 04:40:25 16° E 04:42:47 10° SE visible
31 Jan ? 06:11:25 10° NNW 06:14:33 26° WNW 06:17:41 10° SW visible
